Time,TemperatureF,DewpointF,PressureIn,WindDirection,WindDirectionDegrees,WindSpeedMPH,WindSpeedGustMPH,Humidity,HourlyPrecipIn,Conditions,Clouds,dailyrainin,SoftwareType,DateUTC
2013-01-03 00:00:00,22.8,14.5,30.09,SW,225,2.0,4.0,70,0.00,,,0.00,meteohub,2013-01-03 05:00:00,
2013-01-03 00:04:00,22.8,14.5,30.09,NW,315,2.0,4.0,70,0.00,,,0.00,meteohub,2013-01-03 05:04:00,
2013-01-03 00:05:00,22.6,14.4,30.09,SW,225,2.0,4.0,70,0.00,,,0.00,meteohub,2013-01-03 05:05:00,
2013-01-03 00:10:00,22.5,14.2,30.09,West,270,3.0,4.0,70,0.00,,,0.00,meteohub,2013-01-03 05:10:00,
2013-01-03 00:15:00,22.3,14.0,30.09,South,180,4.0,4.0,70,0.00,,,0.00,meteohub,2013-01-03 05:15:00,
2013-01-03 00:20:00,22.3,14.0,30.09,SW,225,2.0,4.0,70,0.00,,,0.00,meteohub,2013-01-03 05:20:00,
2013-01-03 00:25:00,22.1,13.8,30.09,SW,225,3.0,4.0,70,0.00,,,0.00,meteohub,2013-01-03 05:25:00,
2013-01-03 00:30:00,22.1,13.8,30.09,SW,225,4.0,4.0,70,0.00,,,0.00,meteohub,2013-01-03 05:30:00,
2013-01-03 00:35:00,21.9,13.6,30.09,West,270,3.0,4.0,70,0.00,,,0.00,meteohub,2013-01-03 05:35:00,
2013-01-03 00:40:00,21.9,13.6,30.10,SW,225,4.0,4.0,70,0.00,,,0.00,meteohub,2013-01-03 05:40:00,
2013-01-03 00:46:00,21.7,13.5,30.09,South,180,4.0,4.0,70,0.00,,,0.00,meteohub,2013-01-03 05:46:00,
2013-01-03 00:51:00,21.7,13.5,30.09,South,180,3.0,7.0,70,0.00,,,0.00,meteohub,2013-01-03 05:51:00,
2013-01-03 00:56:00,21.6,13.3,30.09,SW,225,3.0,7.0,70,0.00,,,0.00,meteohub,2013-01-03 05:56:00,
2013-01-03 01:01:00,21.4,13.1,30.09,SW,225,2.0,7.0,70,0.00,,,0.00,meteohub,2013-01-03 06:01:00,
2013-01-03 01:06:00,21.0,13.1,30.09,South,180,2.0,3.0,71,0.00,,,0.00,meteohub,2013-01-03 06:06:00,
2013-01-03 01:11:00,20.7,12.7,30.09,South,180,3.0,3.0,71,0.00,,,0.00,meteohub,2013-01-03 06:11:00,
2013-01-03 01:16:00,20.7,12.7,30.09,SW,225,2.0,4.0,71,0.00,,,0.00,meteohub,2013-01-03 06:16:00,
2013-01-03 01:21:00,20.7,12.7,30.09,SW,225,2.0,4.0,71,0.00,,,0.00,meteohub,2013-01-03 06:21:00,
2013-01-03 01:26:00,20.1,12.2,30.09,South,180,2.0,4.0,71,0.00,,,0.00,meteohub,2013-01-03 06:26:00,
2013-01-03 01:32:00,19.8,11.8,30.09,SW,225,3.0,4.0,71,0.00,,,0.00,meteohub,2013-01-03 06:32:00,
2013-01-03 01:37:00,19.6,11.7,30.09,SW,225,2.0,3.0,71,0.00,,,0.00,meteohub,2013-01-03 06:37:00,
2013-01-03 01:42:00,19.4,11.5,30.09,South,180,4.0,4.0,71,0.00,,,0.00,meteohub,2013-01-03 06:42:00,
2013-01-03 01:47:00,19.2,10.0,30.09,SE,135,2.0,4.0,67,0.00,,,0.00,meteohub,2013-01-03 06:47:00,
2013-01-03 01:52:00,19.0,9.9,30.09,East,90,2.0,4.0,67,0.00,,,0.00,meteohub,2013-01-03 06:52:00,
2013-01-03 01:57:00,18.9,9.7,30.08,South,180,1.0,4.0,67,0.00,,,0.00,meteohub,2013-01-03 06:57:00,
2013-01-03 02:03:00,18.5,9.3,30.08,North,0,2.0,3.0,67,0.00,,,0.00,meteohub,2013-01-03 07:03:00,
2013-01-03 02:08:00,18.3,9.1,30.08,South,180,3.0,3.0,67,0.00,,,0.00,meteohub,2013-01-03 07:08:00,
2013-01-03 02:13:00,18.1,8.8,30.08,South,180,2.0,3.0,66,0.00,,,0.00,meteohub,2013-01-03 07:13:00,
2013-01-03 02:18:00,18.0,8.6,30.08,SW,225,0.0,3.0,66,0.00,,,0.00,meteohub,2013-01-03 07:18:00,
2013-01-03 02:23:00,17.8,8.4,30.08,South,180,2.0,3.0,66,0.00,,,0.00,meteohub,2013-01-03 07:23:00,
2013-01-03 02:28:00,17.6,7.9,30.07,South,180,2.0,3.0,65,0.00,,,0.00,meteohub,2013-01-03 07:28:00,
2013-01-03 02:33:00,17.2,7.9,30.08,SE,135,1.0,3.0,66,0.00,,,0.00,meteohub,2013-01-03 07:33:00,
2013-01-03 02:39:00,17.1,7.7,30.08,South,180,0.0,3.0,66,0.00,,,0.00,meteohub,2013-01-03 07:39:00,
2013-01-03 02:44:00,16.9,7.5,30.09,South,180,0.0,2.0,66,0.00,,,0.00,meteohub,2013-01-03 07:44:00,
2013-01-03 02:49:00,16.7,7.3,30.09,East,90,0.0,2.0,66,0.00,,,0.00,meteohub,2013-01-03 07:49:00,
2013-01-03 02:54:00,16.5,7.2,30.09,SW,225,0.0,2.0,66,0.00,,,0.00,meteohub,2013-01-03 07:54:00,
2013-01-03 02:59:00,16.3,7.0,30.09,SW,225,0.0,0.0,66,0.00,,,0.00,meteohub,2013-01-03 07:59:00,
2013-01-03 03:05:00,16.3,7.0,30.09,SW,225,0.0,0.0,66,0.00,,,0.00,meteohub,2013-01-03 08:05:00,
2013-01-03 03:10:00,16.2,6.4,30.08,South,180,0.0,0.0,65,0.00,,,0.00,meteohub,2013-01-03 08:10:00,
2013-01-03 03:15:00,16.0,6.3,30.08,South,180,0.0,0.0,65,0.00,,,0.00,meteohub,2013-01-03 08:15:00,
2013-01-03 03:20:00,15.8,6.1,30.08,South,180,2.0,0.0,65,0.00,,,0.00,meteohub,2013-01-03 08:20:00,
2013-01-03 03:25:00,15.6,5.9,30.07,South,180,2.0,3.0,65,0.00,,,0.00,meteohub,2013-01-03 08:25:00,
2013-01-03 03:31:00,15.6,5.9,30.07,SW,225,0.0,3.0,65,0.00,,,0.00,meteohub,2013-01-03 08:31:00,
2013-01-03 03:36:00,15.4,5.7,30.07,SSE,158,0.0,2.0,65,0.00,,,0.00,meteohub,2013-01-03 08:36:00,
2013-01-03 03:41:00,15.3,5.4,30.07,South,180,2.0,2.0,64,0.00,,,0.00,meteohub,2013-01-03 08:41:00,
2013-01-03 03:46:00,15.1,5.2,30.06,SW,225,1.0,2.0,64,0.00,,,0.00,meteohub,2013-01-03 08:46:00,
2013-01-03 03:51:00,14.9,5.0,30.07,South,180,1.0,2.0,64,0.00,,,0.00,meteohub,2013-01-03 08:51:00,
2013-01-03 03:56:00,14.4,4.5,30.07,NE,45,0.0,2.0,64,0.00,,,0.00,meteohub,2013-01-03 08:56:00,
2013-01-03 04:01:00,13.8,4.3,30.06,East,90,0.0,1.0,65,0.00,,,0.00,meteohub,2013-01-03 09:01:00,
2013-01-03 04:07:00,13.5,3.9,30.06,East,90,0.0,1.0,65,0.00,,,0.00,meteohub,2013-01-03 09:07:00,
2013-01-03 04:12:00,13.3,3.7,30.06,East,90,0.0,0.0,65,0.00,,,0.00,meteohub,2013-01-03 09:12:00,
2013-01-03 04:17:00,13.3,3.7,30.06,SW,225,0.0,0.0,65,0.00,,,0.00,meteohub,2013-01-03 09:17:00,
2013-01-03 04:22:00,13.5,3.9,30.06,East,90,0.0,0.0,65,0.00,,,0.00,meteohub,2013-01-03 09:22:00,
2013-01-03 04:27:00,13.6,4.5,30.06,South,180,0.0,0.0,66,0.00,,,0.00,meteohub,2013-01-03 09:27:00,
2013-01-03 04:32:00,14.0,4.5,30.06,NE,45,0.0,0.0,65,0.00,,,0.00,meteohub,2013-01-03 09:32:00,
2013-01-03 04:37:00,14.2,4.6,30.06,NE,45,0.0,0.0,65,0.00,,,0.00,meteohub,2013-01-03 09:37:00,
2013-01-03 04:42:00,14.4,4.8,30.05,NE,45,0.0,0.0,65,0.00,,,0.00,meteohub,2013-01-03 09:42:00,
2013-01-03 04:47:00,14.4,4.8,30.05,South,180,2.0,0.0,65,0.00,,,0.00,meteohub,2013-01-03 09:47:00,
2013-01-03 04:52:00,14.7,5.2,30.05,South,180,2.0,2.0,65,0.00,,,0.00,meteohub,2013-01-03 09:52:00,
2013-01-03 04:57:00,14.9,5.2,30.05,NE,45,2.0,2.0,65,0.00,,,0.00,meteohub,2013-01-03 09:57:00,
2013-01-03 05:02:00,14.9,5.0,30.05,SW,225,1.0,2.0,64,0.00,,,0.00,meteohub,2013-01-03 10:02:00,
2013-01-03 05:07:00,15.1,5.2,30.04,South,180,0.0,2.0,64,0.00,,,0.00,meteohub,2013-01-03 10:07:00,
2013-01-03 05:12:00,15.3,5.0,30.05,SW,225,2.0,2.0,63,0.00,,,0.00,meteohub,2013-01-03 10:12:00,
2013-01-03 05:18:00,15.3,5.0,30.04,South,180,0.0,2.0,63,0.00,,,0.00,meteohub,2013-01-03 10:18:00,
2013-01-03 05:23:00,15.3,5.0,30.04,South,180,0.0,2.0,63,0.00,,,0.00,meteohub,2013-01-03 10:23:00,
2013-01-03 05:28:00,15.4,4.8,30.04,SW,225,0.0,2.0,62,0.00,,,0.00,meteohub,2013-01-03 10:28:00,
2013-01-03 05:33:00,15.4,4.8,30.04,SW,225,0.0,0.0,62,0.00,,,0.00,meteohub,2013-01-03 10:33:00,
2013-01-03 05:38:00,15.4,4.5,30.04,South,180,2.0,0.0,61,0.00,,,0.00,meteohub,2013-01-03 10:38:00,
2013-01-03 05:44:00,15.6,4.3,30.04,SW,225,3.0,3.0,60,0.00,,,0.00,meteohub,2013-01-03 10:44:00,
2013-01-03 05:49:00,15.6,4.3,30.04,SW,225,2.0,3.0,60,0.00,,,0.00,meteohub,2013-01-03 10:49:00,
2013-01-03 05:54:00,15.8,3.6,30.04,SW,225,2.0,3.0,58,0.00,,,0.00,meteohub,2013-01-03 10:54:00,
2013-01-03 05:59:00,15.8,3.2,30.04,SW,225,2.0,3.0,57,0.00,,,0.00,meteohub,2013-01-03 10:59:00,
2013-01-03 06:04:00,15.8,3.2,30.04,SW,225,0.0,3.0,57,0.00,,,0.00,meteohub,2013-01-03 11:04:00,
2013-01-03 06:10:00,15.8,3.2,30.04,SW,225,2.0,2.0,57,0.00,,,0.00,meteohub,2013-01-03 11:10:00,
2013-01-03 06:15:00,15.8,3.2,30.04,SW,225,2.0,2.0,57,0.00,,,0.00,meteohub,2013-01-03 11:15:00,
2013-01-03 06:20:00,15.8,3.2,30.04,SW,225,0.0,3.0,57,0.00,,,0.00,meteohub,2013-01-03 11:20:00,
2013-01-03 06:25:00,15.8,2.8,30.04,SW,225,3.0,3.0,56,0.00,,,0.00,meteohub,2013-01-03 11:25:00,
2013-01-03 06:30:00,15.8,2.8,30.04,WNW,293,3.0,3.0,56,0.00,,,0.00,meteohub,2013-01-03 11:30:00,
2013-01-03 06:36:00,15.8,2.8,30.03,South,180,2.0,3.0,56,0.00,,,0.00,meteohub,2013-01-03 11:36:00,
2013-01-03 06:41:00,15.8,2.8,30.03,South,180,2.0,3.0,56,0.00,,,0.00,meteohub,2013-01-03 11:41:00,
2013-01-03 06:46:00,16.0,3.0,30.02,South,180,2.0,3.0,56,0.00,,,0.00,meteohub,2013-01-03 11:46:00,
2013-01-03 06:51:00,16.0,3.0,30.02,SSE,158,2.0,3.0,56,0.00,,,0.00,meteohub,2013-01-03 11:51:00,
2013-01-03 06:56:00,16.0,3.0,30.03,South,180,2.0,3.0,56,0.00,,,0.00,meteohub,2013-01-03 11:56:00,
2013-01-03 07:01:00,16.0,3.0,30.02,SW,225,2.0,3.0,56,0.00,,,0.00,meteohub,2013-01-03 12:01:00,
2013-01-03 07:06:00,16.0,3.0,30.03,SW,225,2.0,2.0,56,0.00,,,0.00,meteohub,2013-01-03 12:06:00,
2013-01-03 07:12:00,16.2,3.2,30.03,SW,225,2.0,2.0,56,0.00,,,0.00,meteohub,2013-01-03 12:12:00,
2013-01-03 07:17:00,16.2,3.2,30.02,South,180,2.0,2.0,56,0.00,,,0.00,meteohub,2013-01-03 12:17:00,
2013-01-03 07:22:00,16.2,3.2,30.03,SW,225,2.0,2.0,56,0.00,,,0.00,meteohub,2013-01-03 12:22:00,
2013-01-03 07:27:00,16.2,3.2,30.03,South,180,2.0,3.0,56,0.00,,,0.00,meteohub,2013-01-03 12:27:00,
2013-01-03 07:32:00,16.2,3.2,30.02,South,180,2.0,4.0,56,0.00,,,0.00,meteohub,2013-01-03 12:32:00,
2013-01-03 07:37:00,16.2,3.2,30.02,South,180,1.0,4.0,56,0.00,,,0.00,meteohub,2013-01-03 12:37:00,
2013-01-03 07:42:00,16.3,3.4,30.02,SW,225,1.0,4.0,56,0.00,,,0.00,meteohub,2013-01-03 12:42:00,
2013-01-03 07:47:00,16.3,3.4,30.02,South,180,2.0,4.0,56,0.00,,,0.00,meteohub,2013-01-03 12:47:00,
2013-01-03 07:52:00,16.3,3.4,30.02,South,180,2.0,3.0,56,0.00,,,0.00,meteohub,2013-01-03 12:52:00,
2013-01-03 07:57:00,16.3,3.4,30.02,SW,225,3.0,4.0,56,0.00,,,0.00,meteohub,2013-01-03 12:57:00,
2013-01-03 08:02:00,16.3,3.4,30.03,SW,225,2.0,4.0,56,0.00,,,0.00,meteohub,2013-01-03 13:02:00,
2013-01-03 08:07:00,16.3,3.4,30.03,SE,135,1.0,4.0,56,0.00,,,0.00,meteohub,2013-01-03 13:07:00,
2013-01-03 08:12:00,16.3,3.4,30.03,East,90,2.0,4.0,56,0.00,,,0.00,meteohub,2013-01-03 13:12:00,
2013-01-03 08:17:00,16.5,3.6,30.02,South,180,1.0,2.0,56,0.00,,,0.00,meteohub,2013-01-03 13:17:00,
2013-01-03 08:22:00,16.7,4.1,30.02,SW,225,1.0,2.0,57,0.00,,,0.00,meteohub,2013-01-03 13:22:00,
2013-01-03 08:28:00,16.7,4.1,30.03,SW,225,1.0,2.0,57,0.00,,,0.00,meteohub,2013-01-03 13:28:00,
2013-01-03 08:33:00,17.1,4.5,30.03,West,270,2.0,2.0,57,0.00,,,0.00,meteohub,2013-01-03 13:33:00,
2013-01-03 08:38:00,17.1,4.5,30.02,South,180,2.0,2.0,57,0.00,,,0.00,meteohub,2013-01-03 13:38:00,
2013-01-03 08:43:00,17.2,4.6,30.03,South,180,2.0,4.0,57,0.00,,,0.00,meteohub,2013-01-03 13:43:00,
2013-01-03 08:48:00,17.4,4.8,30.03,South,180,2.0,4.0,57,0.00,,,0.00,meteohub,2013-01-03 13:48:00,
2013-01-03 08:53:00,17.6,4.6,30.03,South,180,0.0,4.0,56,0.00,,,0.00,meteohub,2013-01-03 13:53:00,
2013-01-03 08:58:00,17.8,4.8,30.03,SW,225,2.0,4.0,56,0.00,,,0.00,meteohub,2013-01-03 13:58:00,
2013-01-03 09:03:00,18.0,5.0,30.03,South,180,2.0,2.0,56,0.00,,,0.00,meteohub,2013-01-03 14:03:00,
2013-01-03 09:09:00,18.1,5.0,30.03,SW,225,2.0,2.0,56,0.00,,,0.00,meteohub,2013-01-03 14:09:00,
2013-01-03 09:14:00,18.3,5.2,30.03,South,180,1.0,3.0,56,0.00,,,0.00,meteohub,2013-01-03 14:14:00,
2013-01-03 09:19:00,18.5,5.4,30.03,SW,225,3.0,3.0,56,0.00,,,0.00,meteohub,2013-01-03 14:19:00,
2013-01-03 09:24:00,18.7,5.5,30.03,SW,225,2.0,3.0,56,0.00,,,0.00,meteohub,2013-01-03 14:24:00,
2013-01-03 09:29:00,18.9,5.7,30.03,East,90,2.0,3.0,56,0.00,,,0.00,meteohub,2013-01-03 14:29:00,
2013-01-03 09:34:00,19.0,5.9,30.03,SW,225,2.0,4.0,56,0.00,,,0.00,meteohub,2013-01-03 14:34:00,
2013-01-03 09:39:00,19.2,6.1,30.03,West,270,3.0,4.0,56,0.00,,,0.00,meteohub,2013-01-03 14:39:00,
2013-01-03 09:44:00,19.4,7.7,30.03,West,270,0.0,4.0,60,0.00,,,0.00,meteohub,2013-01-03 14:44:00,
2013-01-03 09:50:00,19.6,7.9,30.03,West,270,2.0,3.0,60,0.00,,,0.00,meteohub,2013-01-03 14:50:00,
2013-01-03 09:55:00,19.9,8.2,30.03,SW,225,3.0,3.0,60,0.00,,,0.00,meteohub,2013-01-03 14:55:00,
2013-01-03 10:00:00,20.1,8.4,30.04,SW,225,2.0,3.0,60,0.00,,,0.00,meteohub,2013-01-03 15:00:00,
2013-01-03 10:05:00,20.5,9.1,30.04,SW,225,4.0,4.0,61,0.00,,,0.00,meteohub,2013-01-03 15:05:00,
2013-01-03 10:10:00,20.7,9.3,30.04,West,270,2.0,4.0,61,0.00,,,0.00,meteohub,2013-01-03 15:10:00,
2013-01-03 10:15:00,32.0,12.6,33.41,West,270,3.0,4.0,44,0.00,,,0.00,meteohub,2013-01-03 15:15:00,
2013-01-03 10:20:00,21.0,9.7,30.04,SW,225,4.0,4.0,61,0.00,,,0.00,meteohub,2013-01-03 15:20:00,
2013-01-03 10:26:00,21.2,9.9,30.04,SW,225,2.0,4.0,61,0.00,,,0.00,meteohub,2013-01-03 15:26:00,
2013-01-03 10:31:00,21.6,10.2,30.04,West,270,2.0,4.0,61,0.00,,,0.00,meteohub,2013-01-03 15:31:00,
2013-01-03 10:36:00,21.7,10.8,30.04,West,270,2.0,4.0,62,0.00,,,0.00,meteohub,2013-01-03 15:36:00,
2013-01-03 10:41:00,21.9,10.9,30.04,East,90,4.0,4.0,62,0.00,,,0.00,meteohub,2013-01-03 15:41:00,
2013-01-03 10:46:00,22.1,11.5,30.04,West,270,2.0,4.0,63,0.00,,,0.00,meteohub,2013-01-03 15:46:00,
2013-01-03 10:51:00,22.5,12.2,30.04,South,180,3.0,4.0,64,0.00,,,0.00,meteohub,2013-01-03 15:51:00,
2013-01-03 10:56:00,22.8,12.6,30.04,South,180,3.0,4.0,64,0.00,,,0.00,meteohub,2013-01-03 15:56:00,
2013-01-03 11:02:00,23.2,12.7,30.04,West,270,2.0,3.0,64,0.00,,,0.00,meteohub,2013-01-03 16:02:00,
2013-01-03 11:07:00,23.4,12.9,30.04,West,270,2.0,4.0,64,0.00,,,0.00,meteohub,2013-01-03 16:07:00,
2013-01-03 11:12:00,23.5,13.5,30.04,West,270,3.0,4.0,65,0.00,,,0.00,meteohub,2013-01-03 16:12:00,
2013-01-03 11:17:00,23.7,13.6,30.03,West,270,3.0,4.0,65,0.00,,,0.00,meteohub,2013-01-03 16:17:00,
2013-01-03 11:22:00,23.9,13.8,30.03,West,270,2.0,4.0,65,0.00,,,0.00,meteohub,2013-01-03 16:22:00,
2013-01-03 11:27:00,24.1,14.4,30.03,South,180,3.0,4.0,66,0.00,,,0.00,meteohub,2013-01-03 16:27:00,
2013-01-03 11:32:00,24.1,14.4,30.03,West,270,2.0,4.0,66,0.00,,,0.00,meteohub,2013-01-03 16:32:00,
2013-01-03 11:37:00,24.3,14.5,30.02,SW,225,2.0,4.0,66,0.00,,,0.00,meteohub,2013-01-03 16:37:00,
2013-01-03 11:43:00,24.4,15.1,30.02,West,270,2.0,4.0,67,0.00,,,0.00,meteohub,2013-01-03 16:43:00,
2013-01-03 11:48:00,24.4,15.1,30.02,West,270,3.0,4.0,67,0.00,,,0.00,meteohub,2013-01-03 16:48:00,
2013-01-03 11:53:00,24.6,15.3,30.01,SW,225,4.0,4.0,67,0.00,,,0.00,meteohub,2013-01-03 16:53:00,
2013-01-03 11:58:00,24.8,15.1,30.01,West,270,2.0,4.0,66,0.00,,,0.00,meteohub,2013-01-03 16:58:00,
2013-01-03 12:03:00,25.2,15.4,30.01,SW,225,4.0,4.0,66,0.00,,,0.00,meteohub,2013-01-03 17:03:00,
2013-01-03 12:08:00,25.2,15.4,30.01,SW,225,4.0,5.0,66,0.00,,,0.00,meteohub,2013-01-03 17:08:00,
2013-01-03 12:14:00,25.2,15.4,30.01,SW,225,2.0,5.0,66,0.00,,,0.00,meteohub,2013-01-03 17:14:00,
2013-01-03 12:19:00,25.3,16.0,30.01,SW,225,3.0,5.0,67,0.00,,,0.00,meteohub,2013-01-03 17:19:00,
2013-01-03 12:24:00,25.5,16.2,30.01,SW,225,3.0,4.0,67,0.00,,,0.00,meteohub,2013-01-03 17:24:00,
2013-01-03 12:29:00,25.7,16.3,30.00,West,270,3.0,4.0,67,0.00,,,0.00,meteohub,2013-01-03 17:29:00,
2013-01-03 12:34:00,25.9,16.5,30.00,West,270,4.0,4.0,67,0.00,,,0.00,meteohub,2013-01-03 17:34:00,
2013-01-03 12:39:00,26.1,16.7,30.00,SW,225,4.0,4.0,67,0.00,,,0.00,meteohub,2013-01-03 17:39:00,
2013-01-03 12:45:00,26.2,17.1,30.00,West,270,2.0,4.0,68,0.00,,,0.00,meteohub,2013-01-03 17:45:00,
2013-01-03 12:50:00,26.4,17.2,30.00,West,270,4.0,4.0,68,0.00,,,0.00,meteohub,2013-01-03 17:50:00,
2013-01-03 12:55:00,26.4,17.2,30.00,SW,225,3.0,6.0,68,0.00,,,0.00,meteohub,2013-01-03 17:55:00,
2013-01-03 13:00:00,26.6,17.1,30.00,SW,225,3.0,6.0,67,0.00,,,0.00,meteohub,2013-01-03 18:00:00,
2013-01-03 13:05:00,26.6,17.1,30.00,SW,225,3.0,7.0,67,0.00,,,0.00,meteohub,2013-01-03 18:05:00,
2013-01-03 13:10:00,26.6,17.4,30.00,South,180,4.0,7.0,68,0.00,,,0.00,meteohub,2013-01-03 18:10:00,
2013-01-03 13:15:00,26.8,17.6,30.00,West,270,5.0,7.0,68,0.00,,,0.00,meteohub,2013-01-03 18:15:00,
2013-01-03 13:20:00,26.8,17.6,30.00,SW,225,4.0,5.0,68,0.00,,,0.00,meteohub,2013-01-03 18:20:00,
2013-01-03 13:25:00,26.8,18.0,30.00,West,270,4.0,5.0,69,0.00,,,0.00,meteohub,2013-01-03 18:25:00,
2013-01-03 13:31:00,27.0,18.1,30.00,WSW,248,2.0,8.0,69,0.00,,,0.00,meteohub,2013-01-03 18:31:00,
2013-01-03 13:36:00,27.0,18.1,30.00,West,270,2.0,8.0,69,0.00,,,0.00,meteohub,2013-01-03 18:36:00,
2013-01-03 13:41:00,27.1,18.3,30.00,West,270,4.0,8.0,69,0.00,,,0.00,meteohub,2013-01-03 18:41:00,
2013-01-03 13:46:00,27.1,18.3,30.00,SW,225,4.0,4.0,69,0.00,,,0.00,meteohub,2013-01-03 18:46:00,
2013-01-03 13:51:00,27.1,18.3,30.00,West,270,4.0,4.0,69,0.00,,,0.00,meteohub,2013-01-03 18:51:00,
2013-01-03 13:56:00,27.1,18.3,30.00,West,270,4.0,4.0,69,0.00,,,0.00,meteohub,2013-01-03 18:56:00,
2013-01-03 14:01:00,27.0,18.1,30.00,West,270,4.0,6.0,69,0.00,,,0.00,meteohub,2013-01-03 19:01:00,
2013-01-03 14:06:00,27.1,18.3,30.00,SW,225,4.0,6.0,69,0.00,,,0.00,meteohub,2013-01-03 19:06:00,
2013-01-03 14:11:00,27.1,18.7,30.00,NW,315,4.0,6.0,70,0.00,,,0.00,meteohub,2013-01-03 19:11:00,
2013-01-03 14:17:00,27.1,18.7,30.00,West,270,2.0,6.0,70,0.00,,,0.00,meteohub,2013-01-03 19:17:00,
2013-01-03 14:34:00,27.3,19.2,30.01,SW,225,2.0,5.0,71,0.00,,,0.00,meteohub,2013-01-03 19:34:00,
2013-01-03 14:56:00,27.5,19.4,30.01,West,270,4.0,5.0,71,0.00,,,0.00,meteohub,2013-01-03 19:56:00,
2013-01-03 15:01:00,27.5,19.4,30.01,NW,315,2.0,5.0,71,0.00,,,0.00,meteohub,2013-01-03 20:01:00,
2013-01-03 15:06:00,27.5,19.4,30.02,SW,225,2.0,5.0,71,0.00,,,0.00,meteohub,2013-01-03 20:06:00,
2013-01-03 15:11:00,27.5,19.4,30.01,SW,225,5.0,5.0,71,0.00,,,0.00,meteohub,2013-01-03 20:11:00,
2013-01-03 15:16:00,27.5,19.4,30.02,West,270,2.0,5.0,71,0.00,,,0.00,meteohub,2013-01-03 20:16:00,
2013-01-03 15:22:00,27.5,19.6,30.02,SW,225,4.0,7.0,72,0.00,,,0.00,meteohub,2013-01-03 20:22:00,
2013-01-03 15:27:00,27.7,19.8,30.02,West,270,2.0,7.0,72,0.00,,,0.00,meteohub,2013-01-03 20:27:00,
2013-01-03 15:32:00,27.7,19.8,30.02,SW,225,4.0,4.0,72,0.00,,,0.00,meteohub,2013-01-03 20:32:00,
2013-01-03 15:37:00,27.7,19.8,30.02,West,270,2.0,4.0,72,0.00,,,0.00,meteohub,2013-01-03 20:37:00,
2013-01-03 15:42:00,27.7,19.8,30.03,North,0,2.0,4.0,72,0.00,,,0.00,meteohub,2013-01-03 20:42:00,
2013-01-03 15:47:00,27.9,19.9,30.03,West,270,2.0,5.0,72,0.00,,,0.00,meteohub,2013-01-03 20:47:00,
2013-01-03 15:52:00,27.9,19.9,30.03,West,270,4.0,5.0,72,0.00,,,0.00,meteohub,2013-01-03 20:52:00,
2013-01-03 15:57:00,27.9,19.9,30.03,SW,225,3.0,5.0,72,0.00,,,0.00,meteohub,2013-01-03 20:57:00,
2013-01-03 16:02:00,27.9,19.9,30.03,West,270,3.0,5.0,72,0.00,,,0.00,meteohub,2013-01-03 21:02:00,
2013-01-03 16:07:00,27.9,20.3,30.03,SW,225,4.0,5.0,73,0.00,,,0.00,meteohub,2013-01-03 21:07:00,
2013-01-03 16:12:00,27.9,20.3,30.03,SW,225,5.0,5.0,73,0.00,,,0.00,meteohub,2013-01-03 21:12:00,
2013-01-03 16:17:00,28.0,20.5,30.03,NW,315,2.0,5.0,73,0.00,,,0.00,meteohub,2013-01-03 21:17:00,
2013-01-03 16:22:00,28.0,20.5,30.04,West,270,2.0,5.0,73,0.00,,,0.00,meteohub,2013-01-03 21:22:00,
2013-01-03 16:27:00,28.0,20.5,30.04,North,0,5.0,5.0,73,0.00,,,0.00,meteohub,2013-01-03 21:27:00,
2013-01-03 16:32:00,28.0,20.8,30.04,West,270,2.0,5.0,74,0.00,,,0.00,meteohub,2013-01-03 21:32:00,
2013-01-03 16:37:00,28.0,20.8,30.04,SW,225,5.0,5.0,74,0.00,,,0.00,meteohub,2013-01-03 21:37:00,
2013-01-03 16:42:00,28.0,20.8,30.04,West,270,4.0,5.0,74,0.00,,,0.00,meteohub,2013-01-03 21:42:00,
2013-01-03 16:47:00,28.0,20.8,30.04,East,90,3.0,5.0,74,0.00,,,0.00,meteohub,2013-01-03 21:47:00,
2013-01-03 16:52:00,28.0,20.8,30.04,West,270,2.0,5.0,74,0.00,,,0.00,meteohub,2013-01-03 21:52:00,
2013-01-03 16:57:00,28.0,20.8,30.04,West,270,3.0,4.0,74,0.00,,,0.00,meteohub,2013-01-03 21:57:00,
2013-01-03 17:02:00,28.0,20.8,30.04,SW,225,4.0,4.0,74,0.00,,,0.00,meteohub,2013-01-03 22:02:00,
2013-01-03 17:07:00,28.0,20.8,30.04,SW,225,4.0,4.0,74,0.00,,,0.00,meteohub,2013-01-03 22:07:00,
2013-01-03 17:12:00,28.0,20.8,30.05,NW,315,2.0,7.0,74,0.00,,,0.00,meteohub,2013-01-03 22:12:00,
2013-01-03 17:17:00,28.0,20.8,30.05,West,270,2.0,7.0,74,0.00,,,0.00,meteohub,2013-01-03 22:17:00,
2013-01-03 17:22:00,28.0,20.8,30.05,SW,225,2.0,4.0,74,0.00,,,0.00,meteohub,2013-01-03 22:22:00,
2013-01-03 17:27:00,28.0,20.8,30.05,West,270,4.0,4.0,74,0.00,,,0.00,meteohub,2013-01-03 22:27:00,
2013-01-03 17:32:00,28.0,21.2,30.06,NW,315,4.0,4.0,75,0.00,,,0.00,meteohub,2013-01-03 22:32:00,
2013-01-03 17:37:00,28.2,21.4,30.06,West,270,2.0,4.0,75,0.00,,,0.00,meteohub,2013-01-03 22:37:00,
2013-01-03 17:42:00,28.2,21.4,30.06,NW,315,5.0,11.0,75,0.00,,,0.00,meteohub,2013-01-03 22:42:00,
2013-01-03 17:47:00,28.2,21.4,30.06,SW,225,4.0,11.0,75,0.00,,,0.00,meteohub,2013-01-03 22:47:00,
2013-01-03 17:52:00,28.2,21.4,30.06,West,270,3.0,5.0,75,0.00,,,0.00,meteohub,2013-01-03 22:52:00,
2013-01-03 17:57:00,28.2,21.4,30.06,West,270,3.0,5.0,75,0.00,,,0.00,meteohub,2013-01-03 22:57:00,
2013-01-03 18:02:00,28.2,21.4,30.07,West,270,3.0,4.0,75,0.00,,,0.00,meteohub,2013-01-03 23:02:00,
2013-01-03 18:07:00,28.2,21.4,30.07,SW,225,4.0,4.0,75,0.00,,,0.00,meteohub,2013-01-03 23:07:00,
2013-01-03 18:12:00,28.4,22.6,30.07,SW,225,4.0,6.0,79,0.00,,,0.00,meteohub,2013-01-03 23:12:00,
2013-01-03 18:17:00,28.4,22.6,30.07,North,0,8.0,8.0,79,0.00,,,0.00,meteohub,2013-01-03 23:17:00,
2013-01-03 18:22:00,28.4,22.6,30.07,NW,315,2.0,8.0,79,0.00,,,0.00,meteohub,2013-01-03 23:22:00,
2013-01-03 18:27:00,28.4,22.6,30.07,NW,315,4.0,8.0,79,0.00,,,0.00,meteohub,2013-01-03 23:27:00,
2013-01-03 18:32:00,28.4,22.6,30.08,West,270,3.0,8.0,79,0.00,,,0.00,meteohub,2013-01-03 23:32:00,
2013-01-03 18:37:00,28.6,22.8,30.07,West,270,2.0,4.0,79,0.00,,,0.00,meteohub,2013-01-03 23:37:00,
2013-01-03 18:42:00,28.6,22.6,30.08,West,270,4.0,4.0,78,0.00,,,0.00,meteohub,2013-01-03 23:42:00,
2013-01-03 18:47:00,28.6,22.6,30.08,West,270,4.0,4.0,78,0.00,,,0.00,meteohub,2013-01-03 23:47:00,
2013-01-03 18:52:00,28.8,22.8,30.08,West,270,2.0,6.0,78,0.00,,,0.00,meteohub,2013-01-03 23:52:00,
2013-01-03 18:57:00,28.8,22.8,30.08,West,270,4.0,6.0,78,0.00,,,0.00,meteohub,2013-01-03 23:57:00,
2013-01-03 19:02:00,28.8,22.8,30.08,West,270,2.0,6.0,78,0.00,,,0.00,meteohub,2013-01-04 00:02:00,
2013-01-03 19:07:00,28.8,22.8,30.09,NW,315,0.0,6.0,78,0.00,,,0.00,meteohub,2013-01-04 00:07:00,
2013-01-03 19:12:00,28.8,22.8,30.09,West,270,2.0,4.0,78,0.00,,,0.00,meteohub,2013-01-04 00:12:00,
2013-01-03 19:17:00,28.8,22.8,30.09,North,0,2.0,2.0,78,0.00,,,0.00,meteohub,2013-01-04 00:17:00,
2013-01-03 19:22:00,28.8,22.8,30.09,NW,315,2.0,4.0,78,0.00,,,0.00,meteohub,2013-01-04 00:22:00,
2013-01-03 19:27:00,28.8,22.8,30.10,West,270,2.0,4.0,78,0.00,,,0.00,meteohub,2013-01-04 00:27:00,
2013-01-03 19:32:00,28.8,22.8,30.10,SW,225,4.0,4.0,78,0.00,,,0.00,meteohub,2013-01-04 00:32:00,
2013-01-03 19:37:00,28.8,22.5,30.09,West,270,2.0,4.0,77,0.00,,,0.00,meteohub,2013-01-04 00:37:00,
2013-01-03 19:42:00,28.8,22.5,30.09,NW,315,2.0,4.0,77,0.00,,,0.00,meteohub,2013-01-04 00:42:00,
2013-01-03 19:47:00,28.8,22.5,30.09,West,270,5.0,10.0,77,0.00,,,0.00,meteohub,2013-01-04 00:47:00,
2013-01-03 19:52:00,28.8,22.5,30.10,West,270,3.0,10.0,77,0.00,,,0.00,meteohub,2013-01-04 00:52:00,
2013-01-03 19:57:00,28.6,21.9,30.10,NE,45,2.0,10.0,76,0.00,,,0.00,meteohub,2013-01-04 00:57:00,
2013-01-03 20:02:00,28.6,21.9,30.10,NW,315,4.0,5.0,76,0.00,,,0.00,meteohub,2013-01-04 01:02:00,
2013-01-03 20:07:00,28.6,21.9,30.10,NW,315,2.0,5.0,76,0.00,,,0.00,meteohub,2013-01-04 01:07:00,
2013-01-03 20:12:00,28.6,21.9,30.10,North,0,4.0,9.0,76,0.00,,,0.00,meteohub,2013-01-04 01:12:00,
2013-01-03 20:17:00,28.6,21.7,30.10,North,0,2.0,9.0,75,0.00,,,0.00,meteohub,2013-01-04 01:17:00,
2013-01-03 20:22:00,28.6,21.7,30.10,North,0,2.0,9.0,75,0.00,,,0.00,meteohub,2013-01-04 01:22:00,
2013-01-03 20:27:00,28.6,21.7,30.10,NW,315,2.0,4.0,75,0.00,,,0.00,meteohub,2013-01-04 01:27:00,
2013-01-03 20:32:00,28.4,21.6,30.10,SW,225,3.0,3.0,75,0.00,,,0.00,meteohub,2013-01-04 01:32:00,
2013-01-03 20:37:00,28.4,21.6,30.10,SW,225,2.0,4.0,75,0.00,,,0.00,meteohub,2013-01-04 01:37:00,
2013-01-03 20:42:00,32.0,12.6,33.41,NW,315,3.0,4.0,44,0.00,,,0.00,meteohub,2013-01-04 01:42:00,
2013-01-03 20:47:00,28.4,21.6,30.10,NE,45,2.0,5.0,75,0.00,,,0.00,meteohub,2013-01-04 01:47:00,
2013-01-03 20:52:00,28.4,21.6,30.10,NW,315,1.0,5.0,75,0.00,,,0.00,meteohub,2013-01-04 01:52:00,
2013-01-03 20:57:00,28.4,21.6,30.10,NW,315,4.0,5.0,75,0.00,,,0.00,meteohub,2013-01-04 01:57:00,
2013-01-03 21:02:00,28.2,20.1,30.10,West,270,6.0,6.0,71,0.00,,,0.00,meteohub,2013-01-04 02:02:00,
2013-01-03 21:07:00,28.2,20.1,30.10,West,270,6.0,7.0,71,0.00,,,0.00,meteohub,2013-01-04 02:07:00,
2013-01-03 21:12:00,28.2,20.1,30.10,West,270,2.0,7.0,71,0.00,,,0.00,meteohub,2013-01-04 02:12:00,
2013-01-03 21:17:00,28.2,20.1,30.10,North,0,3.0,6.0,71,0.00,,,0.00,meteohub,2013-01-04 02:17:00,
2013-01-03 21:22:00,28.2,19.8,30.10,North,0,2.0,6.0,70,0.00,,,0.00,meteohub,2013-01-04 02:22:00,
2013-01-03 21:27:00,28.2,19.4,30.10,NW,315,5.0,7.0,69,0.00,,,0.00,meteohub,2013-01-04 02:27:00,
2013-01-03 21:32:00,28.2,19.4,30.10,West,270,3.0,7.0,69,0.00,,,0.00,meteohub,2013-01-04 02:32:00,
2013-01-03 21:37:00,28.2,19.4,30.10,NW,315,4.0,7.0,69,0.00,,,0.00,meteohub,2013-01-04 02:37:00,
2013-01-03 21:42:00,28.2,19.4,30.10,West,270,2.0,5.0,69,0.00,,,0.00,meteohub,2013-01-04 02:42:00,
2013-01-03 21:47:00,28.2,19.4,30.10,West,270,2.0,5.0,69,0.00,,,0.00,meteohub,2013-01-04 02:47:00,
2013-01-03 21:52:00,28.2,19.0,30.10,West,270,4.0,6.0,68,0.00,,,0.00,meteohub,2013-01-04 02:52:00,
2013-01-03 21:57:00,28.2,19.0,30.11,West,270,2.0,6.0,68,0.00,,,0.00,meteohub,2013-01-04 02:57:00,
2013-01-03 22:02:00,28.2,18.7,30.10,West,270,3.0,6.0,67,0.00,,,0.00,meteohub,2013-01-04 03:02:00,
2013-01-03 22:07:00,28.2,18.7,30.10,NW,315,2.0,4.0,67,0.00,,,0.00,meteohub,2013-01-04 03:07:00,
2013-01-03 22:13:00,28.2,18.7,30.10,NW,315,2.0,4.0,67,0.00,,,0.00,meteohub,2013-01-04 03:13:00,
2013-01-03 22:18:00,28.0,18.5,30.10,SW,225,2.0,3.0,67,0.00,,,0.00,meteohub,2013-01-04 03:18:00,
2013-01-03 22:23:00,28.0,18.5,30.10,SW,225,2.0,3.0,67,0.00,,,0.00,meteohub,2013-01-04 03:23:00,
2013-01-03 22:28:00,28.0,18.5,30.10,SW,225,4.0,4.0,67,0.00,,,0.00,meteohub,2013-01-04 03:28:00,
2013-01-03 22:33:00,28.0,18.5,30.10,SW,225,2.0,4.0,67,0.00,,,0.00,meteohub,2013-01-04 03:33:00,
2013-01-03 22:38:00,27.9,18.3,30.10,SW,225,2.0,4.0,67,0.00,,,0.00,meteohub,2013-01-04 03:38:00,
2013-01-03 22:43:00,27.9,18.3,30.09,West,270,1.0,4.0,67,0.00,,,0.00,meteohub,2013-01-04 03:43:00,
2013-01-03 22:48:00,27.7,18.1,30.09,West,270,2.0,3.0,67,0.00,,,0.00,meteohub,2013-01-04 03:48:00,
2013-01-03 22:54:00,27.7,18.1,30.10,West,270,1.0,3.0,67,0.00,,,0.00,meteohub,2013-01-04 03:54:00,
2013-01-03 22:59:00,27.5,18.0,30.10,North,0,4.0,4.0,67,0.00,,,0.00,meteohub,2013-01-04 03:59:00,
2013-01-03 23:04:00,27.5,18.3,30.10,NW,315,2.0,4.0,68,0.00,,,0.00,meteohub,2013-01-04 04:04:00,
2013-01-03 23:09:00,27.5,18.7,30.09,West,270,0.0,4.0,69,0.00,,,0.00,meteohub,2013-01-04 04:09:00,
2013-01-03 23:14:00,27.5,18.7,30.09,West,270,0.0,4.0,69,0.00,,,0.00,meteohub,2013-01-04 04:14:00,
2013-01-03 23:19:00,27.7,19.2,30.09,West,270,0.0,2.0,70,0.00,,,0.00,meteohub,2013-01-04 04:19:00,
2013-01-03 23:24:00,27.5,19.0,30.09,West,270,2.0,2.0,70,0.00,,,0.00,meteohub,2013-01-04 04:24:00,
2013-01-03 23:29:00,27.5,19.4,30.09,West,270,2.0,2.0,71,0.00,,,0.00,meteohub,2013-01-04 04:29:00,
2013-01-03 23:35:00,27.7,19.6,30.09,West,270,2.0,2.0,71,0.00,,,0.00,meteohub,2013-01-04 04:35:00,
2013-01-03 23:40:00,27.7,19.6,30.08,SW,225,2.0,4.0,71,0.00,,,0.00,meteohub,2013-01-04 04:40:00,
2013-01-03 23:45:00,27.7,19.6,30.08,West,270,2.0,4.0,71,0.00,,,0.00,meteohub,2013-01-04 04:45:00,
2013-01-03 23:50:00,27.5,19.4,30.08,SW,225,2.0,2.0,71,0.00,,,0.00,meteohub,2013-01-04 04:50:00,
2013-01-03 23:55:00,27.5,19.4,30.08,West,270,2.0,2.0,71,0.00,,,0.00,meteohub,2013-01-04 04:55:00,